Change the Weather History Date:

Saturday, June 7, 2008

  Actual Average Record
Temperature  
Mean Temperature 79 °F 69 °F  
Max Temperature 92 °F 80 °F 94 °F (1933)
Min Temperature 65 °F 58 °F 44 °F (1976)
Degree Days  
Heating Degree Days 0 1  
Month to date heating degree days 0 7  
Since 1 June heating degree days 7  
Since 1 July heating degree days 3947 4188  
Cooling Degree Days 14 5  
Month to date cooling degree days 64 29  
Year to date cooling degree days 103 87  
Since 1 June cooling degree days 29  
Growing Degree Days 27 (Base 50)    
Moisture  
Dew Point 66 °F    
Average Humidity 71    
Maximum Humidity 100    
Minimum Humidity 41    
Precipitation  
Precipitation 0.02 in 0.15 in 3.42 in (2013)
Month to date precipitation 0.07 1.02  
Year to date precipitation 15.10 19.27  
Snow  
Snow 0.00 in 0.00 in 0.00 in ()
Month to date snowfall 0.0 0.0  
Since 1 June snowfall 0.0  
Since 1 July snowfall 3.8 9.9  
Snow Depth -    
Sea Level Pressure  
Sea Level Pressure 30.17 in    
Wind  
Wind Speed 2 mph (SSW)    
Max Wind Speed 18 mph    
Max Gust Speed 25 mph    
Visibility 8 miles    
Events Rain    
T = Trace of Precipitation, MM = Missing Value Source: NWS Daily Summary

Daily Weather History Graph

Daily Weather History Graph

Search for Another Location

Airport or City:

Trip Planner

Search our weather history database for the weather conditions in past years. The results will help you decide how hot, cold, wet, or windy it might be!

Date:

Astronomy

Jun. 07, 2008 Rise Set
Actual Time 6:14 AM EDT 8:43 PM EDT
Civil Twilight 5:45 AM EDT 9:13 PM EDT
Nautical Twilight 5:08 AM EDT 9:50 PM EDT
Astronomical Twilight 4:27 AM EDT 10:30 PM EDT
Moon 10:19 AM EDT (6/7) No Moon Set
Length of Visible Light 15h 28m
Length of Day
14h 28m
Waxing Crescent, 20% of the Moon is Illuminated
Jun 7
Waxing Crescent
Jun 10
First Quarter
Jun 18
Full
Jun 26
Last Quarter
Jul 2
New

Hourly Weather History & Observations

Time (EDT) Temp. Heat Index Dew Point Humidity Pressure Visibility Wind Dir Wind Speed Gust Speed Precip Events Conditions
12:54 AM 72.0 °F - 66.9 °F 84% 30.17 in 10.0 mi Calm Calm - N/A   Clear
1:54 AM 71.1 °F - 66.9 °F 87% 30.17 in 10.0 mi Calm Calm - N/A   Clear
2:54 AM 69.1 °F - 66.0 °F 90% 30.17 in 8.0 mi Calm Calm - N/A   Clear
3:54 AM 66.9 °F - 66.0 °F 97% 30.18 in 6.0 mi Calm Calm - N/A   Clear
4:54 AM 68.0 °F - 64.9 °F 90% 30.17 in 8.0 mi Calm Calm - N/A   Clear
5:54 AM 64.9 °F - 64.0 °F 97% 30.18 in 6.0 mi Calm Calm - N/A   Clear
6:54 AM 64.9 °F - 64.0 °F 97% 30.19 in 4.0 mi Calm Calm - N/A   Clear
7:54 AM 68.0 °F - 64.9 °F 90% 30.22 in 6.0 mi Calm Calm - N/A   Clear
8:54 AM 73.9 °F - 66.0 °F 76% 30.22 in 10.0 mi NNW 5.8 mph - N/A   Clear
9:54 AM 80.1 °F 82.3 °F 66.9 °F 64% 30.22 in 10.0 mi Calm Calm - N/A   Clear
10:54 AM 82.9 °F 85.0 °F 66.0 °F 56% 30.20 in 10.0 mi West 4.6 mph - N/A   Clear
11:54 AM 86.0 °F 87.6 °F 64.9 °F 49% 30.19 in 10.0 mi Calm Calm - N/A   Clear
12:54 PM 88.0 °F 89.6 °F 64.9 °F 46% 30.17 in 10.0 mi SSE 8.1 mph - N/A   Clear
1:54 PM 89.1 °F 90.0 °F 63.0 °F 42% 30.15 in 10.0 mi Variable 5.8 mph - N/A   Clear
2:54 PM 90.0 °F 90.3 °F 62.1 °F 39% 30.13 in 10.0 mi South 9.2 mph - N/A   Partly Cloudy
3:25 PM 80.6 °F 80.5 °F 55.4 °F 42% 30.24 in 1.8 mi South 11.5 mph 23.0 mph N/A   Haze
3:34 PM 73.4 °F - 64.4 °F 73% 30.23 in 4.0 mi SSE 11.5 mph 21.9 mph 0.02 in Rain Rain
3:54 PM 73.9 °F - 64.9 °F 73% 30.16 in 10.0 mi Calm Calm - 0.02 in Rain Light Rain
4:54 PM 75.9 °F - 68.0 °F 76% 30.15 in 10.0 mi Calm Calm - 0.00 in   Partly Cloudy
5:54 PM 79.0 °F - 64.9 °F 62% 30.14 in 10.0 mi Variable 3.5 mph - N/A   Clear
6:54 PM 75.9 °F - 68.0 °F 76% 30.15 in 9.0 mi Calm Calm - N/A   Clear
7:54 PM 75.9 °F - 70.0 °F 82% 30.15 in 7.0 mi Calm Calm - N/A   Clear
8:54 PM 73.0 °F - 70.0 °F 90% 30.14 in 6.0 mi Calm Calm - N/A   Clear
9:54 PM 72.0 °F - 69.1 °F 91% 30.12 in 7.0 mi Calm Calm - N/A   Clear
10:54 PM 71.1 °F - 68.0 °F 90% 30.14 in 7.0 mi Calm Calm - N/A   Clear
11:54 PM 69.1 °F - 68.0 °F 96% 30.15 in 4.0 mi Calm Calm - N/A   Clear